Home   Weather   Rome   Past weeks

Flag for Italy Past Weather in Rome, Italy — Yesterday and Last 2 Weeks

Now
46 °F

Clear.


Feels Like: 46 °F
Forecast: 40 / 62 °F
Wind: 1 mph from North

Location: Rome / Ciampino

Current Time: Jan 22, 2018 at 11:24:02 pm

Latest Report: Jan 22, 2018 at 10:20 pm


Visibility: 5 mi

Pressure: 29.95 "Hg

Humidity: 82%

Dew Point: 41 °F

Location of RomeLocation

Past Weather in Rome — Graph

°F

Rome Temperature Yesterday

Maximum temperature yesterday: 61 °F (at 2:20 pm)
Minimum temperature yesterday: 46 °F (at 10:20 pm)
Average temperature yesterday: 54 °F

High & Low Weather Summary for the Past Weeks

 TemperatureHumidityPressure
High68 °F (Jan 8, 1:50 pm)100% (Jan 10, 7:20 am)30.21 "Hg (Jan 10, 7:20 am)
Low34 °F (Jan 18, 3:50 am)32% (Jan 17, 10:20 pm)29.62 "Hg (Jan 17, 11:50 am)
Average51 °F75%29.97 "Hg
* Reported Jan 7 10:20 pm — Jan 22 10:20 pm, Rome. Weather by CustomWeather, © 2018

Note: Actual official high and low records may vary slightly from our data, if they occured in-between our weather recording intervals... More about our weather records

Advertising

Rome Weather History for the Previous 24 Hours

Scroll right to see more
 ConditionsComfort  
Time TempWeatherWind HumidityBarometerVisibility
10:20 pm
Mon, Jan 22
46 °FClear.1 mph82%29.95 "Hg5 mi
9:50 pm45 °FClear.7 mph87%29.95 "Hg5 mi
9:20 pm46 °FClear.3 mph76%29.98 "Hg4 mi
8:50 pm45 °FClear.3 mph81%29.98 "Hg4 mi
8:20 pm46 °FClear.3 mph82%29.95 "Hg4 mi
7:50 pm46 °FClear.1 mph82%29.98 "Hg10 mi
7:20 pm48 °FClear.5 mph82%29.95 "Hg10 mi
6:50 pm48 °FPassing clouds.3 mph82%29.95 "HgN/A
6:20 pm50 °FClear.5 mph71%29.95 "Hg10 mi
5:50 pm50 °FClear.3 mph76%29.95 "Hg10 mi
5:20 pm52 °FClear.5 mph72%29.95 "Hg10 mi
4:50 pm54 °FSunny.6 mph67%29.95 "Hg10 mi
4:20 pm55 °FSunny.6 mph63%29.95 "Hg10 mi
3:50 pm54 °FPassing clouds.7 mph67%29.95 "HgN/A
3:20 pm55 °FPassing clouds.6 mph63%29.95 "HgN/A
2:20 pm57 °FPassing clouds.8 mph59%29.95 "HgN/A
1:50 pm55 °FSunny.8 mph63%29.95 "Hg10 mi
1:20 pm57 °FPassing clouds.7 mph59%29.95 "HgN/A
12:50 pm55 °FPassing clouds.8 mph63%29.95 "HgN/A
11:50 am55 °FSunny.9 mph63%29.98 "Hg10 mi
11:20 am55 °FPassing clouds.9 mph59%29.98 "HgN/A
10:50 am54 °FSunny.5 mph67%29.98 "Hg10 mi
10:20 am50 °FPassing clouds.5 mph67%29.98 "HgN/A
9:50 am46 °FPassing clouds.5 mph71%29.98 "HgN/A
9:20 am45 °FPassing clouds.3 mph71%29.95 "HgN/A
8:50 am45 °FPassing clouds.3 mph66%29.95 "HgN/A
8:20 am43 °FPassing clouds.3 mph66%29.95 "HgN/A
7:50 am43 °FPassing clouds.3 mph66%29.95 "HgN/A
7:20 am39 °FClear.2 mph81%29.95 "Hg10 mi
6:50 am39 °FClear.1 mph81%29.92 "Hg10 mi
6:20 am39 °FClear.5 mph81%29.92 "Hg10 mi
4:50 am43 °FClear.5 mph76%29.89 "Hg10 mi
4:20 am43 °FClear.7 mph76%29.92 "Hg10 mi
3:50 am43 °FClear.6 mph71%29.92 "Hg10 mi
2:50 am45 °FClear.5 mph71%29.92 "Hg10 mi
2:20 am45 °FClear.6 mph76%29.92 "Hg10 mi
1:50 am46 °FClear.5 mph71%29.89 "Hg10 mi
12:50 am46 °FClear.6 mph71%29.89 "Hg10 mi
12:20 am46 °FClear.7 mph71%29.89 "Hg10 mi
11:50 pm
Sun, Jan 21
46 °FClear.5 mph76%29.86 "Hg10 mi
11:20 pm46 °FClear.1 mph76%29.86 "Hg10 mi
Weather by CustomWeather, © 2018

See weather overview